Orbital Elements at Epoch 2459000.5 (2020-May-31.0) TDB
Reference: JPL 14 (heliocentric ecliptic J2000)
Element | Value | Uncertainty (1-sigma) | Units |
e | .1659950559294932 | 5.0519e-08 | |
a | 2.63695938804329 | 1.6983e-08 | au |
q | 2.199237166941242 | 1.3931e-07 | au |
i | 3.555136073659639 | 5.316e-06 | deg |
node | 47.35027442348511 | 9.0744e-05 | deg |
peri | 47.55613842201871 | 9.2973e-05 | deg |
M | 297.2436920545992 | 1.7364e-05 | deg |
tp | 2459273.151865438511 (2021-Feb-27.65186544) | 7.536e-05 | TDB |
period | 1564.060646194492 4.28 | 1.5109e-05 4.137e-08 | d yr |
n | .230170102979008 | 2.2235e-09 | deg/d |
Q | 3.074681609145337 | 1.9802e-08 | au |
|
| | Orbit Determination Parameters
Additional Information
|